Tracking 18980 objects as of 18-Feb-2018
HD Live streaming from Space Station
objects crossing your sky now

NOAA 16 DEB

Track NOAA 16 DEB now!
10-day predictions


NORAD ID: 41299
Int'l Code: 2000-055HB
Perigee: 834.5 km
Apogee: 912.8 km
Inclination: 98.9 °
Period: 102.3 minutes
Semi major axis: 7244 km
RCS: Unknown
Launch date: September 21, 2000
Source: United States (US)
Launch site: AIR FORCE WESTERN TEST RANGE (AFWTR)

Note: This is SATELLITE DEBRIS
aabbcc
Your satellite tracking list
Your tracking list is empty




NASA's NSSDC Master Catalog

Two Line Element Set (TLE):
1 41299U 00055HB  18049.40917466  .00000665  00000-0  41144-3 0  9998
2 41299  98.8859 119.9640 0053988  86.5267 274.2075 14.07915621110208
Source of the keplerian elements: AFSPC